• In Russia
  • List of Countries
  • For 7 days
  • Water Temperature
  • Satellite Maps
  • Weather Map
  • Weather Widgets
  • user-avatar
    Login

    Hourly Weather Fier

    Today, 24 January, Tuesday

    Time Temperature Precipitation Wind Pressure Humidity
    00:00 +5°C° 0 mm 3 mps 762 mmHg 78%
    01:00 +5°C° 0 mm 3 mps 761 mmHg 78%
    02:00 +5°C° 0.1 mm 4 mps 761 mmHg 78%
    03:00 +5°C° 0.1 mm 4 mps 760 mmHg 79%
    04:00 +5°C° 0.1 mm 4 mps 760 mmHg 79%
    05:00 +5°C° 0.2 mm 3 mps 760 mmHg 79%
    06:00 +5°C° 0.2 mm 3 mps 759 mmHg 80%
    07:00 +5°C° 0.2 mm 3 mps 759 mmHg 81%
    08:00 +5°C° 0.3 mm 3 mps 759 mmHg 80%
    09:00 +7°C° 0.3 mm 3 mps 759 mmHg 79%
    10:00 +8°C° 0.3 mm 3 mps 760 mmHg 78%
    11:00 +8°C° 0.3 mm 2 mps 759 mmHg 78%
    12:00 +8°C° 0.3 mm 2 mps 759 mmHg 77%
    13:00 +9°C° 0.3 mm 2 mps 758 mmHg 77%
    14:00 +8°C° 0.6 mm 2 mps 758 mmHg 79%
    15:00 +8°C° 0.6 mm 2 mps 758 mmHg 82%
    16:00 +7°C° 0.6 mm 2 mps 758 mmHg 85%
    17:00 +7°C° 0.3 mm 2 mps 758 mmHg 85%
    18:00 +7°C° 0.3 mm 2 mps 759 mmHg 86%
    19:00 +7°C° 0.3 mm 3 mps 759 mmHg 87%
    20:00 +7°C° 0.3 mm 3 mps 759 mmHg 87%
    21:00 +5°C° 0.3 mm 3 mps 759 mmHg 87%
    22:00 +5°C° 0.3 mm 3 mps 759 mmHg 87%
    23:00 +5°C° 0.3 mm 3 mps 759 mmHg 87%

    Tomorrow, 25 January, Wednesday

    Time Temperature Precipitation Wind Pressure Humidity
    00:00 +5°C° 0.3 mm 3 mps 759 mmHg 86%
    01:00 +5°C° 0.3 mm 3 mps 759 mmHg 86%
    02:00 +5°C° 0.2 mm 3 mps 760 mmHg 86%
    03:00 +4°C° 0.2 mm 3 mps 760 mmHg 86%
    04:00 +4°C° 0.2 mm 3 mps 760 mmHg 86%
    05:00 +4°C° 0.2 mm 3 mps 760 mmHg 86%
    06:00 +4°C° 0.2 mm 3 mps 760 mmHg 86%
    07:00 +4°C° 0.2 mm 3 mps 761 mmHg 85%
    08:00 +5°C° 0.1 mm 3 mps 761 mmHg 83%
    09:00 +7°C° 0.1 mm 3 mps 761 mmHg 80%
    10:00 +8°C° 0.1 mm 3 mps 762 mmHg 78%
    11:00 +9°C° 0.2 mm 3 mps 762 mmHg 77%
    12:00 +9°C° 0.2 mm 3 mps 762 mmHg 75%
    13:00 +10°C° 0.2 mm 3 mps 762 mmHg 74%
    14:00 +9°C° 0.1 mm 3 mps 762 mmHg 76%
    15:00 +9°C° 0.1 mm 3 mps 762 mmHg 77%
    16:00 +9°C° 0.1 mm 3 mps 762 mmHg 79%
    17:00 +8°C° 0 mm 3 mps 762 mmHg 81%
    18:00 +7°C° 0 mm 3 mps 763 mmHg 82%
    19:00 +5°C° 0 mm 3 mps 763 mmHg 83%
    20:00 +5°C° 0 mm 3 mps 763 mmHg 83%
    21:00 +4°C° 0 mm 3 mps 764 mmHg 83%
    22:00 +4°C° 0 mm 3 mps 764 mmHg 83%
    23:00 +4°C° 0 mm 4 mps 764 mmHg 83%

    Day after tomorrow, 26 January, Thursday

    Time Temperature Precipitation Wind Pressure Humidity
    00:00 +4°C° 0 mm 4 mps 764 mmHg 82%
    01:00 +4°C° 0 mm 4 mps 764 mmHg 82%
    02:00 +4°C° 0 mm 3 mps 764 mmHg 83%
    03:00 +4°C° 0 mm 3 mps 764 mmHg 83%
    04:00 +4°C° 0 mm 3 mps 764 mmHg 83%
    05:00 +4°C° 0 mm 3 mps 764 mmHg 83%
    06:00 +3°C° 0 mm 3 mps 765 mmHg 83%
    07:00 +3°C° 0 mm 3 mps 765 mmHg 83%
    08:00 +5°C° 0 mm 3 mps 765 mmHg 80%
    09:00 +7°C° 0 mm 3 mps 765 mmHg 76%
    10:00 +8°C° 0 mm 3 mps 765 mmHg 73%
    11:00 +9°C° 0 mm 2 mps 765 mmHg 71%
    12:00 +10°C° 0 mm 2 mps 765 mmHg 69%
    13:00 +12°C° 0 mm 2 mps 765 mmHg 67%
    14:00 +10°C° 0 mm 2 mps 765 mmHg 70%
    15:00 +10°C° 0 mm 2 mps 765 mmHg 73%
    16:00 +9°C° 0 mm 2 mps 765 mmHg 76%
    17:00 +8°C° 0 mm 2 mps 766 mmHg 78%
    18:00 +7°C° 0 mm 2 mps 766 mmHg 81%
    19:00 +6°C° 0 mm 2 mps 767 mmHg 83%
    20:00 +6°C° 0 mm 2 mps 767 mmHg 83%
    21:00 +6°C° 0 mm 2 mps 767 mmHg 83%
    22:00 +5°C° 0 mm 2 mps 767 mmHg 83%
    23:00 +5°C° 0 mm 2 mps 768 mmHg 83%

    27 January, Friday

    Time Temperature Precipitation Wind Pressure Humidity
    00:00 +5°C° 0 mm 2 mps 768 mmHg 83%
    01:00 +5°C° 0 mm 2 mps 768 mmHg 83%
    02:00 +4°C° 0.1 mm 3 mps 768 mmHg 83%
    03:00 +3°C° 0.1 mm 3 mps 768 mmHg 83%
    04:00 +3°C° 0.1 mm 3 mps 768 mmHg 83%
    05:00 +3°C° 0 mm 3 mps 768 mmHg 82%
    06:00 +3°C° 0 mm 3 mps 768 mmHg 81%
    07:00 +3°C° 0 mm 3 mps 768 mmHg 81%
    08:00 +4°C° 0 mm 3 mps 769 mmHg 77%
    09:00 +7°C° 0 mm 2 mps 769 mmHg 73%
    10:00 +8°C° 0 mm 2 mps 769 mmHg 69%
    11:00 +9°C° 0 mm 2 mps 769 mmHg 67%
    12:00 +10°C° 0 mm 2 mps 769 mmHg 66%
    13:00 +11°C° 0 mm 1 mps 768 mmHg 64%
    14:00 +11°C° 0 mm 1 mps 768 mmHg 67%
    15:00 +10°C° 0 mm 1 mps 768 mmHg 71%
    16:00 +10°C° 0 mm 1 mps 768 mmHg 75%
    17:00 +9°C° 0 mm 1 mps 769 mmHg 77%
    18:00 +7°C° 0 mm 2 mps 769 mmHg 80%
    19:00 +5°C° 0 mm 2 mps 769 mmHg 82%
    20:00 +5°C° 0 mm 2 mps 769 mmHg 82%
    21:00 +5°C° 0 mm 2 mps 770 mmHg 82%
    22:00 +5°C° 0 mm 2 mps 770 mmHg 82%
    23:00 +5°C° 0 mm 2 mps 770 mmHg 82%

    28 January, Saturday

    Time Temperature Precipitation Wind Pressure Humidity
    00:00 +4°C° 0 mm 2 mps 770 mmHg 82%
    01:00 +4°C° 0 mm 2 mps 770 mmHg 82%
    02:00 +4°C° 0 mm 2 mps 769 mmHg 82%
    03:00 +4°C° 0 mm 2 mps 769 mmHg 81%
    04:00 +3°C° 0 mm 3 mps 769 mmHg 80%
    05:00 +3°C° 0 mm 3 mps 769 mmHg 80%
    06:00 +2°C° 0 mm 3 mps 769 mmHg 80%
    07:00 +2°C° 0 mm 3 mps 769 mmHg 80%
    08:00 +5°C° 0 mm 2 mps 769 mmHg 75%
    09:00 +8°C° 0 mm 2 mps 769 mmHg 70%
    10:00 +10°C° 0 mm 2 mps 769 mmHg 65%
    11:00 +11°C° 0 mm 1 mps 769 mmHg 64%
    12:00 +12°C° 0 mm 1 mps 768 mmHg 62%
    13:00 +13°C° 0 mm 1 mps 768 mmHg 60%
    14:00 +12°C° 0 mm 1 mps 768 mmHg 64%
    15:00 +11°C° 0 mm 1 mps 768 mmHg 69%
    16:00 +11°C° 0 mm 1 mps 768 mmHg 73%
    17:00 +9°C° 0 mm 1 mps 768 mmHg 77%
    18:00 +7°C° 0 mm 2 mps 768 mmHg 80%
    19:00 +6°C° 0 mm 2 mps 768 mmHg 83%
    20:00 +5°C° 0 mm 2 mps 768 mmHg 84%
    21:00 +6°C° 0 mm 1 mps 768 mmHg 84%
    22:00 +6°C° 0 mm 1 mps 768 mmHg 84%
    23:00 +6°C° 0 mm 1 mps 768 mmHg 84%

    29 January, Sunday

    Time Temperature Precipitation Wind Pressure Humidity
    00:00 +6°C° 0 mm 1 mps 767 mmHg 84%
    01:00 +5°C° 0 mm 2 mps 767 mmHg 84%
    02:00 +5°C° 0 mm 2 mps 767 mmHg 84%
    03:00 +5°C° 0 mm 2 mps 767 mmHg 84%
    04:00 +5°C° 0 mm 2 mps 767 mmHg 83%
    05:00 +5°C° 0 mm 2 mps 767 mmHg 83%
    06:00 +5°C° 0 mm 2 mps 767 mmHg 83%
    07:00 +5°C° 0 mm 2 mps 767 mmHg 82%
    08:00 +6°C° 0 mm 2 mps 767 mmHg 76%
    09:00 +8°C° 0 mm 2 mps 767 mmHg 69%
    10:00 +11°C° 0 mm 1 mps 767 mmHg 63%
    11:00 +12°C° 0 mm 2 mps 767 mmHg 61%
    12:00 +12°C° 0 mm 2 mps 767 mmHg 59%
    13:00 +13°C° 0 mm 2 mps 766 mmHg 57%
    14:00 +12°C° 0 mm 2 mps 766 mmHg 61%
    15:00 +10°C° 0 mm 2 mps 766 mmHg 64%
    16:00 +10°C° 0 mm 2 mps 767 mmHg 68%
    17:00 +8°C° 0 mm 2 mps 767 mmHg 71%
    18:00 +7°C° 0 mm 2 mps 767 mmHg 73%
    19:00 +6°C° 0 mm 2 mps 767 mmHg 76%
    20:00 +6°C° 0 mm 2 mps 768 mmHg 76%
    21:00 +6°C° 0 mm 1 mps 768 mmHg 76%
    22:00 +6°C° 0 mm 1 mps 768 mmHg 77%
    23:00 +6°C° 0 mm 1 mps 768 mmHg 77%
    Show more